RH
78 77 77 76 75 74 72 71 70 68 67 65 63 61 58 55 52 49 46 42 39 37 34 32 30 29 28 26 25 24 23 23 21 20 20 19 18 18 17 17 17 17 16 17 17 17 18 18 19 19 19 20 20 21 21 22 22 22 21 21 20 19 18 17 17 18 20 23 23 22 21 22 23 23 23 23 22 21 20 19 18 17 16 15 14
78 77 77 76 74 73 72 70 68 67 65 64 63 61 59 57 54 51 48 44 40 38 35 32 29 27 25 24 22 21 20 20 19 18 17 17 16 16 16 16 17 17 18 19 19 19 19 20 21 21 20 21 21 21 21 21 20 20 19 18 17 16 15 14 12 12 13 15 15 14 13 13 14 15 16 16 16 15 14 13 13 13 12 12 11
74 73 72 71 69 68 67 65 64 62 61 59 58 56 54 51 48 44 41 37 34 32 29 28 27 25 25 24 24 24 23 22 22 20 20 19 19 19 19 19 20 20 20 21 21 21 21 21 21 20 19 19 18 18 17 17 16 15 14 13 12 11 10 9 9 8 8 9 10 10 9 8 9 9 9 10 10 11 11 10 10 10 10 10 11
70 68 67 65 63 62 60 57 55 52 49 48 46 43 41 39 37 35 34 33 32 32 32 32 32 33 33 32 31 30 29 28 26 23 22 20 20 20 19 18 18 18 18 17 17 17 17 17 17 16 15 15 14 14 13 12 11 11 10 9 9 8 8 8 7 7 7 8 8 9 9 8 8 9 9 9 9 9 10 10 11 11 11 11 11
68 66 64 62 60 58 56 53 51 48 46 44 43 42 41 40 40 39 38 38 38 37 37 36 35 34 32 31 29 27 25 23 21 19 17 15 15 14 14 13 13 13 13 12 12 12 12 12 12 12 11 11 11 10 10 10 9 9 9 8 8 8 7 7 7 7 7 7 8 9 9 9 9 9 9 9 9 9 9 9 9 10 10 10 10
75 73 71 69 67 64 62 59 58 56 53 51 48 47 45 42 40 38 36 34 32 30 29 26 24 23 21 20 19 18 16 15 14 13 12 11 11 10 10 10 10 10 10 10 10 10 10 10 10 10 10 10 10 10 10 10 10 9 9 9 8 8 8 7 7 7 7 7 7 8 8 8 8 8 8 8 8 8 8 8 8 8 8 8 8
71 69 67 65 62 60 57 55 53 50 47 44 41 38 35 32 30 28 26 24 23 21 20 19 18 17 16 15 15 14 14 13 13 12 11 11 10 10 10 10 10 10 10 11 11 11 11 11 11 11 11 10 10 10 10 10 10 9 9 8 8 8 8 7 7 7 7 7 7 7 7 7 7 7 8 8 7 7 7 7 7 7 7 7 8
47 45 43 42 40 38 37 35 34 32 30 29 27 25 24 23 22 21 20 19 18 18 17 17 16 16 15 15 15 14 14 14 13 12 12 11 11 11 11 11 11 11 11 12 11 11 11 11 10 10 10 10 10 10 9 9 9 9 8 8 8 8 7 7 7 7 7 7 7 7 7 7 7 8 8 8 8 7 7 7 7 7 7 7 7
27 27 26 25 24 23 23 22 21 21 20 20 20 19 18 18 17 17 16 16 16 15 15 15 14 14 14 14 13 13 13 13 12 12 11 11 11 10 10 10 10 11 11 11 10 10 10 10 9 9 9 9 9 9 9 9 9 9 8 8 8 8 7 7 7 7 7 7 7 7 8 8 8 9 9 9 8 8 7 7 7 7 7 7 8
22 22 21 20 20 19 19 18 18 18 17 17 17 16 16 16 16 15 15 15 14 14 14 13 13 13 13 13 13 12 12 11 11 10 10 9 9 9 9 9 10 10 10 10 10 10 10 9 9 9 9 9 9 9 9 9 8 9 8 8 8 8 8 8 8 8 8 8 8 8 8 9 9 9 9 9 9 9 8 8 7 7 7 8 8
20 20 19 19 18 18 17 17 17 16 16 16 16 16 15 15 15 15 14 14 14 13 13 13 13 12 12 12 12 11 11 11 10 10 9 9 8 8 9 10 10 10 9 9 9 9 9 9 9 9 8 8 8 8 8 8 8 8 8 8 8 8 8 8 8 8 8 8 8 8 8 8 9 9 9 9 9 9 8 8 8 8 8 8 8
21 21 20 20 19 19 18 18 18 17 17 16 16 16 16 15 15 15 14 14 13 13 13 12 12 12 12 11 11 11 11 10 10 9 9 8 8 8 8 9 9 9 9 9 9 9 9 9 8 9 8 8 8 8 7 7 7 7 7 7 7 7 7 7 7 7 8 7 7 8 8 8 8 8 8 8 8 8 8 8 8 8 8 8 8
23 22 21 21 20 20 19 18 18 18 17 17 16 16 16 15 15 15 14 14 13 13 12 12 11 11 11 11 10 10 10 10 9 9 8 8 8 8 8 9 9 9 9 9 9 9 9 9 9 9 9 8 8 8 7 7 6 6 6 5 5 6 5 5 6 6 6 6 6 6 6 6 6 6 7 7 7 7 7 7 7 7 7 7 7
22 22 21 21 20 20 19 19 18 18 17 16 16 15 15 14 14 13 13 12 12 12 11 11 11 11 10 11 10 10 10 10 10 9 9 8 8 8 8 9 8 8 8 8 8 7 7 7 7 7 7 7 7 7 6 6 5 5 5 4 4 5 4 4 4 5 5 5 5 5 5 5 5 5 5 6 6 6 6 6 6 6 6 6 6
24 23 22 22 21 20 19 18 18 17 16 15 15 15 14 13 13 13 12 12 12 11 11 11 10 10 10 10 10 9 9 9 9 8 8 7 7 7 7 7 7 7 7 6 6 6 6 6 6 6 6 6 6 6 5 5 5 5 5 5 5 4 4 4 4 5 5 5 4 4 5 4 5 5 5 5 5 5 5 5 5 5 5 5 5
24 23 22 21 20 19 18 17 17 16 15 15 14 14 13 13 12 12 11 11 10 10 10 9 9 9 9 8 9 9 8 8 8 7 6 6 6 6 6 6 6 6 6 5 5 5 5 5 5 5 5 5 4 5 4 4 4 4 4 4 4 3 3 4 4 4 4 3 3 3 3 3 3 4 4 4 4 4 4 4 4 4 4 4 4
22 21 20 19 18 18 17 16 15 15 14 14 13 12 12 11 11 11 10 10 9 9 9 9 8 8 8 8 8 8 7 7 7 6 5 5 5 5 5 5 5 5 5 4 4 4 3 3 3 3 3 3 3 3 3 2 2 2 3 3 2 3 3 3 3 3 3 2 2 2 2 2 2 2 2 2 2 3 3 3 3 3 3 3 3
20 19 18 18 17 16 15 15 14 14 13 13 12 12 12 11 10 10 10 9 9 9 8 8 7 7 7 7 7 7 7 7 6 5 5 4 4 4 4 4 4 4 4 3 3 3 3 3 3 3 2 3 2 2 2 2 2 2 2 3 3 3 3 3 3 3 2 2 2 2 2 2 2 2 2 2 2 2 2 2 2 2 2 2 2
18 17 16 16 15 15 14 14 14 13 13 12 12 11 11 10 10 9 9 9 8 8 8 7 7 7 7 7 7 6 6 6 5 5 4 4 4 4 3 3 3 3 3 3 3 3 3 3 3 3 2 3 2 2 2 2 2 2 2 3 3 2 3 3 3 3 3 3 2 2 2 2 2 2 2 2 2 2 2 2 2 2 2 2 2
17 16 16 15 15 15 14 14 13 13 12 12 11 11 11 10 10 9 9 8 8 8 7 7 6 6 6 6 5 5 5 5 4 4 4 3 3 3 3 3 3 3 3 3 3 3 3 3 3 2 2 2 2 2 2 2 2 2 2 2 2 2 3 3 3 3 3 3 2 2 2 2 2 2 2 2 2 2 2 2 2 2 2 2 2
16 16 15 15 14 14 13 13 13 12 12 12 11 11 11 10 10 9 8 7 7 6 6 6 5 5 5 5 5 4 4 4 4 4 4 3 3 3 3 3 3 3 3 3 3 3 3 3 3 2 2 2 2 2 2 2 2 2 2 2 2 2 3 2 3 3 2 3 3 2 2 2 2 2 2 2 2 2 2 2 2 2 2 2 2
15 15 14 14 14 13 13 13 12 12 12 11 10 9 9 8 7 7 6 6 5 5 5 5 5 5 5 5 5 5 4 4 4 4 4 3 3 3 3 3 3 3 3 3 3 3 3 3 3 2 2 2 2 2 2 2 2 2 2 2 2 2 2 2 2 2 2 2 2 2 2 2 2 2 2 2 2 2 2 2 2 2 2 2 2
15 14 14 13 13 12 11 11 10 9 9 8 7 7 6 6 6 5 5 5 5 5 5 5 5 5 5 5 5 5 5 4 4 4 4 3 3 3 3 3 3 3 3 3 3 3 3 3 3 3 3 2 2 2 2 2 2 2 2 2 2 2 2 2 2 2 2 2 2 2 2 2 2 2 2 2 2 2 2 2 2 2 2 2 2
13 12 12 11 10 9 9 8 7 7 7 6 6 6 6 6 6 6 6 6 6 6 6 6 6 6 6 5 5 5 5 4 4 4 4 3 3 3 3 3 3 3 3 3 3 3 3 3 3 3 2 2 2 2 2 2 2 2 2 2 2 2 2 2 2 2 2 2 2 2 2 2 2 2 2 2 2 2 1 2 2 2 2 2 2
11 9 9 8 7 7 7 7 7 7 7 6 6 6 6 6 6 6 7 7 7 7 7 7 7 6 6 5 5 5 4 4 4 4 4 3 3 3 3 3 3 3 3 3 3 3 3 3 3 2 2 2 2 2 2 2 2 2 2 2 2 2 2 2 2 2 2 2 2 2 2 2 2 2 2 2 2 2 2 2 2 2 2 2 2
8 8 8 7 7 7 7 7 7 7 7 7 7 7 7 7 7 7 7 7 7 7 7 7 7 6 5 5 4 4 4 4 4 4 4 4 4 3 3 3 3 3 3 3 3 3 3 3 2 2 2 2 2 2 2 2 2 2 2 2 2 2 2 2 2 2 2 2 2 2 2 2 2 2 2 2 2 2 2 2 2 2 2 2 2
8 8 8 8 8 8 7 8 8 8 8 8 8 8 8 8 8 8 7 7 8 8 7 7 6 5 5 4 4 4 4 4 4 4 4 4 3 3 3 3 3 3 3 3 3 3 3 3 3 3 2 2 2 2 2 2 2 2 2 2 2 2 2 2 2 2 2 2 2 2 2 2 2 2 2 2 2 2 2 2 2 2 2 2 2
11 11 11 11 10 10 9 9 9 9 9 10 9 9 9 8 8 9 8 8 7 7 6 5 5 5 4 4 4 4 4 4 4 4 4 4 3 3 3 3 3 3 3 3 3 3 3 3 3 3 3 3 2 2 2 2 2 2 2 2 2 2 2 2 2 2 2 2 2 2 2 2 2 2 2 2 2 2 2 2 2 2 2 2 2
15 14 14 13 13 12 12 11 11 11 11 11 10 10 9 9 9 9 8 7 6 5 5 5 4 5 5 4 4 4 4 4 4 3 3 3 3 3 3 3 3 3 3 3 3 3 3 3 3 3 2 2 2 2 2 2 2 2 2 2 2 2 2 2 2 2 2 2 2 2 2 2 2 2 2 2 2 2 2 2 2 2 2 2 2
17 16 16 15 14 14 13 12 12 11 11 11 11 12 11 10 8 7 6 6 5 5 5 5 5 4 4 4 4 4 4 3 3 3 3 3 3 3 3 3 3 3 3 3 3 3 3 3 3 3 2 2 3 2 2 2 2 2 2 2 2 2 2 2 2 2 2 2 2 2 2 2 2 2 2 2 2 2 2 2 2 2 2 2 2
18 17 16 16 15 15 14 14 13 12 12 11 11 11 11 9 7 6 5 5 5 5 5 5 5 4 4 4 4 4 4 4 3 3 3 3 3 3 3 3 3 3 3 3 3 3 3 3 3 3 3 2 3 2 2 2 2 2 2 2 2 2 2 2 2 2 2 2 2 2 2 2 2 2 2 2 2 2 2 2 2 2 2 2 2
19 18 17 17 17 16 16 15 14 13 12 11 9 8 7 7 6 6 6 5 5 5 5 5 5 4 4 4 4 4 4 4 4 4 4 4 4 4 3 3 3 3 3 3 3 3 3 3 3 3 3 3 3 2 2 2 2 2 2 2 2 2 2 2 2 2 2 2 2 2 2 2 2 2 2 2 2 2 2 2 2 2 2 2 2
20 19 19 18 18 17 16 14 13 11 9 8 7 6 6 6 7 7 6 6 5 5 5 4 4 4 4 4 4 4 4 4 4 4 4 4 4 4 4 4 3 3 3 3 4 4 4 3 3 3 3 3 3 3 3 3 2 2 2 2 2 2 2 2 2 2 2 2 2 2 2 2 2 2 2 2 2 2 2 2 2 2 2 2 2
21 20 19 18 17 15 13 11 9 8 7 6 6 6 6 6 6 6 6 6 6 5 5 4 4 4 4 4 4 4 4 4 4 4 4 4 5 5 5 4 4 4 4 4 4 4 4 4 4 3 3 3 3 3 3 3 3 3 3 3 3 3 2 3 3 2 2 3 2 2 2 2 2 2 2 2 2 2 2 2 2 2 2 2 2
21 20 18 16 14 11 9 8 7 7 7 6 6 6 6 6 6 6 5 5 6 5 5 5 5 5 5 5 5 5 5 5 5 5 5 5 5 5 5 5 5 4 4 4 4 4 4 4 4 4 3 3 3 3 3 3 3 3 3 3 3 3 3 3 3 3 3 3 3 3 2 2 2 2 2 2 2 2 2 2 2 2 2 2 2
19 17 14 12 9 8 7 7 7 7 7 7 7 6 6 6 5 5 5 5 5 5 5 6 6 5 5 5 5 5 5 5 5 5 5 5 5 5 5 5 5 5 5 4 4 4 4 4 4 4 4 3 3 3 3 3 3 3 3 3 3 3 3 3 3 3 3 3 3 3 3 2 3 3 3 3 2 3 3 2 2 2 2 2 2
15 12 10 8 8 7 7 7 7 7 7 7 6 6 6 5 5 5 5 5 5 6 6 6 6 6 6 6 5 5 5 5 5 5 5 5 5 5 5 5 5 5 4 4 4 4 4 4 4 4 4 4 4 4 3 3 3 3 3 3 3 3 3 3 3 3 3 3 3 3 3 3 3 3 3 3 3 3 3 3 3 3 3 3 3
11 9 8 8 8 8 8 8 8 7 7 6 6 6 6 6 6 6 6 6 6 6 6 6 6 6 6 6 6 6 6 6 6 6 6 5 5 5 5 5 5 5 4 4 4 4 4 5 4 4 4 4 4 4 4 3 3 3 3 3 3 3 3 3 3 3 3 3 3 3 3 3 3 3 3 3 3 3 3 3 3 3 3 3 3
9 9 8 9 9 8 8 8 7 7 7 6 6 6 6 6 6 6 6 6 6 6 6 6 6 7 7 7 7 7 7 7 7 7 7 7 6 6 6 6 5 5 5 5 5 5 5 5 5 5 5 4 4 4 4 3 3 4 4 3 3 4 4 4 4 4 4 4 4 4 4 3 3 3 3 3 3 3 3 3 3 3 3 3 3
9 9 9 9 9 9 9 8 8 7 7 7 7 7 7 7 7 7 7 7 7 7 7 7 7 7 7 7 7 7 7 7 7 7 7 7 7 7 6 6 6 6 6 5 5 5 5 5 5 5 5 4 4 4 4 4 4 4 4 4 4 4 4 4 4 4 4 4 4 4 4 4 3 3 3 3 3 3 3 3 3 3 3 3 3
10 10 10 10 9 9 8 8 8 7 7 7 7 7 7 7 7 7 7 8 8 8 8 8 7 8 8 8 7 7 8 8 8 7 7 7 7 7 6 6 6 6 6 6 6 6 5 5 5 5 5 5 5 4 4 4 4 4 4 4 4 4 4 4 4 4 4 4 4 4 4 4 4 4 3 3 3 4 3 3 4 4 3 4 4
11 11 10 10 9 9 8 8 8 7 8 8 8 8 8 8 8 8 8 8 8 9 9 9 8 8 8 8 8 8 8 8 8 8 7 7 7 7 6 6 6 6 6 6 6 6 6 5 5 5 5 5 5 5 4 4 4 4 4 5 5 5 5 5 5 5 5 4 5 5 4 4 4 4 4 4 4 4 4 4 4 4 4 4 4
11 11 10 10 9 9 8 8 8 8 8 8 8 8 8 8 8 9 9 9 9 10 10 10 10 9 9 9 8 8 8 8 8 8 8 7 7 7 7 7 7 7 6 6 6 6 6 6 5 5 5 5 5 5 5 5 5 4 5 5 5 5 5 5 5 5 5 5 5 5 5 5 5 4 4 4 4 4 4 4 4 4 4 4 4
11 11 10 10 9 9 9 9 9 9 9 9 9 8 9 9 9 10 10 10 10 10 11 11 11 10 10 9 9 8 9 9 9 9 9 8 8 8 7 7 7 7 7 7 6 6 6 6 6 6 5 5 5 5 5 5 5 5 5 6 6 6 6 6 5 5 5 5 5 5 5 5 5 5 5 5 5 5 5 5 5 5 5 5 5
11 10 10 9 9 9 9 9 9 10 9 9 9 9 9 10 10 11 11 12 11 11 11 11 11 11 10 10 9 9 9 10 9 9 10 9 8 8 8 8 8 8 8 7 7 7 7 7 6 6 6 6 5 6 6 5 6 6 6 6 6 6 6 6 6 6 6 5 5 6 6 5 6 5 5 5 5 5 5 5 5 5 5 5 5
11 10 10 10 9 9 10 9 10 10 9 9 10 10 10 11 11 11 12 12 12 13 12 12 11 11 10 10 10 10 10 10 10 10 10 9 9 9 8 8 8 8 8 8 8 7 7 7 7 7 7 6 6 6 6 6 6 6 6 7 7 7 7 7 6 6 6 6 6 6 6 6 6 6 6 6 6 5 5 5 5 5 5 5 5
11 10 10 10 10 10 10 10 10 10 10 10 10 11 11 12 13 13 13 13 13 14 13 12 12 11 10 10 10 10 10 10 10 10 10 10 9 9 9 9 9 9 8 8 8 8 8 8 7 7 7 7 7 7 7 7 7 7 7 7 7 7 7 7 7 7 7 7 7 7 7 6 6 6 6 6 6 6 6 6 6 5 5 5 5
11 11 11 11 11 11 11 11 11 11 10 11 11 11 12 13 13 13 14 14 14 14 14 13 12 11 11 10 10 10 10 11 10 10 10 10 10 10 10 9 9 9 9 9 9 9 8 8 8 8 8 8 8 8 8 8 8 8 7 8 8 8 8 8 8 8 7 7 7 7 7 7 7 7 6 6 6 6 6 6 6 6 6 6 6
11 11 12 12 12 12 11 11 11 11 11 11 12 12 13 13 13 14 14 14 14 14 14 13 12 11 11 11 11 11 11 11 11 11 10 10 10 10 10 10 10 10 10 10 9 9 9 9 9 9 9 9 9 9 9 9 9 9 8 8 8 9 9 9 9 9 8 8 7 8 8 8 7 7 7 7 6 6 6 6 6 6 6 6 6
12 12 12 12 12 12 12 12 11 12 12 12 12 13 13 14 14 14 15 15 14 14 13 12 12 11 11 11 11 11 11 11 11 11 11 11 11 11 11 11 10 10 10 10 10 10 10 10 9 9 9 9 9 9 10 10 9 9 9 9 9 9 9 9 9 9 9 9 8 8 8 8 8 8 8 7 7 7 7 7 7 7 7 6 6
13 13 13 13 13 13 12 12 12 12 12 13 13 14 14 15 15 14 14 14 14 14 13 12 12 11 11 11 11 12 12 12 12 12 11 11 12 12 12 12 11 11 10 10 11 11 11 11 10 10 10 10 10 10 10 10 10 10 10 10 10 11 10 10 10 10 10 9 9 9 9 9 9 8 8 8 8 8 8 8 8 7 7 7 7
Wind_Speed
118 119 120 121 122 122 123 124 124 125 126 126 127 127 128 128 129 129 129 129 129 130 130 130 130 131 131 132 132 133 133 134 135 135 136 136 136 137 137 137 138 138 139 139 140 140 141 141 142 142 143 143 143 144 144 145 145 146 146 146 147 147 147 147 145 143 141 142 142 142 142 143 143 142 143 143 143 144 144 144 145 145 145 145 145
120 121 122 123 124 124 125 126 127 127 128 129 129 130 130 131 131 132 132 132 132 132 132 133 133 133 133 133 134 134 134 135 135 136 136 136 136 137 137 137 137 138 138 138 139 139 140 140 141 141 142 142 142 143 143 144 144 145 145 146 146 146 146 146 146 143 141 141 142 142 142 142 141 141 141 141 142 142 143 143 142 143 143 144 144
120 121 123 124 124 125 126 127 128 129 129 130 131 132 132 133 133 134 134 134 134 134 134 134 134 134 134 134 135 135 135 135 135 136 136 136 136 136 136 136 136 137 137 137 138 138 139 139 140 141 141 142 142 142 143 143 144 144 145 146 146 146 146 146 145 144 142 141 141 142 142 142 141 140 140 140 140 140 141 142 142 142 142 142 142
121 122 123 124 125 126 127 128 129 129 130 131 131 132 132 133 133 133 133 134 134 134 134 134 134 134 135 135 135 135 136 136 136 136 136 136 136 136 136 136 137 137 137 137 138 139 139 140 140 141 141 142 142 143 143 144 144 144 144 145 145 145 145 145 144 144 142 141 140 141 142 142 141 141 140 140 139 139 139 139 140 141 141 141 141
121 121 122 123 124 125 126 127 127 128 129 129 130 130 130 131 131 131 131 132 132 133 133 133 134 134 134 135 135 136 136 136 137 137 137 137 137 137 137 137 137 137 137 138 138 139 139 140 141 141 141 142 142 143 143 143 144 144 144 144 144 144 144 144 144 143 143 141 140 141 141 141 141 141 140 140 139 138 138 137 138 138 139 140 140
119 120 121 122 123 124 124 125 126 126 127 128 128 129 129 130 130 131 131 132 132 132 133 133 134 134 134 135 135 136 136 136 137 137 137 137 137 137 137 137 137 137 137 137 138 139 139 140 141 141 141 142 142 142 143 143 143 143 144 144 144 144 144 144 143 143 142 141 140 140 140 140 140 140 139 139 139 138 137 136 136 135 136 137 137
119 120 121 122 123 124 125 125 126 127 128 128 129 130 130 131 131 132 132 133 133 134 134 135 135 135 135 136 136 136 137 137 137 137 137 137 137 137 137 137 137 137 137 137 138 139 140 140 141 141 141 142 142 142 142 143 143 143 143 143 143 143 143 142 142 142 142 141 140 139 139 139 139 139 138 138 138 137 136 135 135 134 134 135 134
119 120 121 122 123 124 125 126 126 127 128 129 129 130 130 131 131 132 132 132 133 133 134 134 134 135 135 135 135 136 136 137 137 137 137 137 137 137 137 137 137 137 137 138 139 139 139 140 140 140 140 141 141 141 141 141 141 141 141 141 142 141 141 141 141 141 140 139 138 138 138 137 137 137 137 137 137 136 135 135 134 133 133 134 133
116 117 118 119 120 121 122 122 123 124 125 125 126 126 127 127 128 128 129 129 130 130 130 131 131 132 132 133 133 134 134 135 136 136 136 136 136 136 135 135 135 136 137 137 138 138 138 138 138 138 139 139 139 139 139 139 139 139 139 140 140 140 140 140 140 139 139 138 137 136 136 135 135 136 136 136 136 136 135 135 134 133 132 133 133
112 113 114 114 115 116 117 118 118 119 120 121 121 122 123 123 124 125 125 126 127 127 128 128 129 129 130 131 131 132 133 133 133 134 134 134 133 133 133 132 133 134 135 135 135 136 136 136 136 137 137 137 137 137 137 138 138 138 138 138 139 139 139 138 138 138 137 136 135 134 134 133 133 135 136 136 136 136 135 135 135 134 133 134 133
108 109 110 111 112 113 113 114 115 116 117 117 118 119 120 120 121 122 123 124 124 125 125 126 126 127 127 128 128 129 130 130 131 131 131 131 130 130 129 129 131 132 133 133 133 133 133 134 134 135 135 135 134 134 134 134 135 135 135 136 136 136 136 136 135 135 135 134 133 133 132 132 132 133 135 135 135 135 135 135 135 135 135 135 134
106 107 108 109 110 111 112 112 113 114 115 115 116 117 117 118 119 120 120 121 121 122 122 123 123 123 124 124 125 126 126 127 127 128 128 128 127 126 126 126 128 129 129 129 130 130 130 130 130 131 131 132 132 132 132 132 132 132 132 132 132 132 132 132 132 132 132 132 132 131 131 132 132 133 134 134 134 134 134 134 135 135 135 135 135
105 106 107 107 108 109 110 111 111 112 112 113 113 114 115 115 116 117 118 118 119 119 120 120 120 120 121 121 122 122 123 124 124 125 125 125 124 123 123 124 125 125 126 126 127 127 126 127 127 128 129 130 130 131 131 131 131 131 131 130 130 130 130 130 130 130 130 130 130 130 130 131 131 131 131 133 133 133 133 133 134 134 135 135 135
104 104 105 105 106 107 108 108 109 109 110 110 111 111 112 113 113 114 115 115 116 116 116 117 117 117 117 118 118 119 120 121 122 122 122 122 121 121 122 123 123 124 125 125 125 125 125 125 125 126 127 128 129 130 130 131 130 130 129 129 128 128 128 128 128 128 128 128 129 128 129 130 130 129 129 130 131 131 131 131 132 133 134 134 133
103 103 104 104 105 105 106 106 107 107 108 108 109 109 110 110 111 112 112 113 113 114 114 115 115 115 115 116 117 118 119 120 120 121 120 120 119 120 121 121 122 123 123 123 123 122 122 122 123 123 124 125 126 127 128 128 127 126 126 126 126 126 126 126 126 127 127 128 128 127 127 127 128 128 128 128 129 129 129 130 131 132 132 131 131
102 102 102 103 103 103 104 104 105 105 106 106 107 108 109 109 110 111 111 112 112 113 113 113 113 114 114 114 115 116 117 118 119 119 119 117 117 117 119 120 121 121 121 121 120 120 119 119 120 120 120 121 122 123 124 124 123 122 121 122 122 122 122 122 123 125 126 126 126 125 124 124 125 126 126 126 126 127 128 128 129 129 129 128 128
100 100 100 101 101 102 102 103 104 105 105 106 107 107 108 109 109 110 111 111 111 112 112 112 112 113 113 114 114 115 116 117 118 118 117 115 114 115 116 118 118 119 119 118 118 118 117 117 117 116 117 117 117 119 120 119 118 116 116 116 117 118 119 119 120 121 122 122 122 122 121 120 121 121 121 121 121 123 125 125 126 126 125 125 125
98 99 100 100 101 102 102 103 103 104 105 105 106 107 107 108 108 109 110 110 110 111 111 111 111 111 112 112 113 113 114 115 116 116 115 113 112 113 114 115 116 116 117 117 116 116 116 116 115 114 114 114 114 115 116 116 114 113 113 113 115 116 117 117 118 119 120 120 120 119 118 118 117 118 117 116 116 117 119 121 121 122 121 121 120
98 99 99 100 100 101 101 102 102 103 104 104 105 105 106 107 107 108 108 108 109 109 109 109 109 109 109 110 110 111 112 113 114 114 113 112 111 111 112 113 114 114 115 115 114 114 114 115 114 113 112 112 113 113 113 113 112 111 111 113 114 114 115 115 116 117 118 118 119 118 117 116 115 114 114 113 112 113 114 116 117 118 118 117 117
97 98 98 99 99 100 100 101 102 102 103 103 104 104 104 105 105 106 106 106 107 107 107 107 107 107 107 108 108 109 110 110 111 112 111 110 109 109 110 111 111 112 113 113 113 112 113 113 113 112 111 111 111 111 110 109 109 108 109 110 110 110 111 112 112 113 114 115 115 116 116 115 113 112 111 110 110 110 111 112 113 114 114 114 113
97 97 98 98 99 99 100 100 100 101 101 102 102 102 103 103 104 104 104 104 104 104 104 104 104 104 104 105 105 106 106 107 108 109 109 108 107 107 108 108 108 109 110 110 110 110 110 110 110 109 109 108 107 107 106 105 105 105 105 105 105 106 107 108 108 109 110 111 111 112 112 113 112 110 109 108 107 107 108 109 109 110 111 110 110
96 97 97 97 97 97 98 98 98 99 99 100 100 100 100 101 101 101 101 101 101 100 101 101 101 101 101 102 102 103 104 104 105 106 106 105 105 104 104 105 105 106 107 107 107 107 106 107 106 106 105 105 104 103 102 102 101 101 101 102 102 103 103 104 104 104 105 106 107 108 108 109 109 108 107 106 105 105 105 105 105 106 107 107 107
95 95 95 95 95 95 96 96 96 96 96 97 97 97 97 97 97 97 97 97 97 98 98 98 99 99 99 99 99 100 101 101 101 102 102 102 102 101 101 101 102 103 104 104 104 103 103 103 103 103 102 102 101 100 100 99 99 99 98 99 99 100 99 100 100 101 102 102 103 103 104 104 104 104 103 102 102 101 102 101 101 101 102 102 103
93 93 93 93 93 93 93 93 93 93 93 93 94 94 94 94 95 95 95 95 95 95 96 96 96 97 97 97 97 97 98 98 98 99 99 100 100 99 99 98 99 99 100 101 100 100 101 101 101 100 100 99 99 98 98 97 97 97 96 96 96 97 96 96 96 97 98 99 99 99 100 100 100 100 99 99 98 98 98 98 97 97 97 97 98
90 90 90 90 90 90 90 90 90 90 91 91 92 92 92 92 93 93 93 93 93 93 94 94 94 95 95 95 95 95 95 96 96 96 96 96 96 96 95 95 96 97 97 97 97 97 97 98 98 97 97 96 96 95 94 94 94 94 94 93 94 93 93 92 92 93 94 94 95 95 96 96 96 96 96 96 95 95 95 95 94 94 94 94 94
87 88 88 88 88 88 88 88 88 89 89 90 90 91 91 91 91 92 91 91 91 92 92 92 92 93 93 93 93 93 93 94 93 93 93 93 93 93 92 92 93 94 94 94 94 93 93 94 94 94 93 92 92 92 91 90 90 90 90 90 91 91 90 89 89 89 89 90 91 91 92 92 92 92 92 92 91 91 91 91 91 91 91 91 91
85 86 86 86 87 87 86 86 87 87 87 88 88 89 89 90 90 91 91 90 90 90 90 90 91 91 91 91 91 91 91 91 91 90 91 91 90 90 89 89 89 90 90 90 89 89 89 89 89 90 90 89 89 88 88 87 87 87 87 87 87 87 87 86 86 85 85 85 86 87 87 88 88 88 89 88 88 88 88 87 88 88 88 87 87
85 85 85 86 86 86 86 85 85 85 85 86 86 87 87 88 88 89 89 89 89 88 88 88 88 89 89 89 88 87 87 88 88 88 88 88 87 86 85 85 85 86 86 86 86 85 85 85 85 85 85 85 85 85 85 84 84 84 83 83 83 84 84 83 83 82 82 81 82 82 83 84 84 84 84 84 84 84 84 84 85 85 85 84 84
84 84 84 85 85 85 84 84 84 84 83 83 84 85 86 86 86 87 87 87 87 87 86 86 85 85 85 86 86 85 84 84 84 83 83 83 83 82 81 81 81 82 83 83 82 81 80 80 80 80 80 80 80 80 80 80 79 80 80 80 79 79 80 80 80 79 78 78 78 78 79 79 80 80 80 80 80 80 80 81 82 82 82 81 80
83 83 83 83 83 83 82 82 82 81 81 80 80 82 83 85 85 85 85 85 84 83 83 83 83 82 82 82 83 83 82 81 81 80 80 80 80 79 78 78 78 78 79 79 79 78 77 76 76 76 76 76 75 75 76 76 75 75 76 76 75 75 76 76 76 76 75 75 74 74 75 75 75 76 76 76 76 76 77 78 79 79 78 77 77
81 81 80 80 80 80 79 79 79 79 78 78 78 78 79 81 83 83 83 82 81 81 80 80 80 80 79 79 79 79 79 79 78 78 78 78 77 77 76 75 74 74 75 75 76 76 75 73 73 73 73 73 72 72 71 72 72 72 72 73 72 72 72 73 73 72 72 71 71 71 71 72 72 72 72 73 73 73 74 74 75 75 75 74 73
78 78 78 77 77 77 77 77 76 76 76 76 76 75 75 76 78 80 80 80 80 79 78 77 77 77 77 76 76 75 75 75 75 75 75 75 75 74 74 73 72 71 71 72 72 73 72 71 70 70 69 70 70 69 68 69 69 68 69 69 69 69 69 69 69 69 69 68 68 68 68 68 69 69 69 69 69 69 70 71 71 71 71 71 70
75 75 75 75 75 74 74 74 74 74 74 74 74 73 73 72 73 75 77 78 78 77 76 75 74 74 74 73 73 72 72 72 72 72 72 72 72 72 72 71 71 70 69 68 69 69 69 69 68 67 67 67 67 66 66 66 66 65 65 66 66 66 66 66 66 66 66 65 65 65 65 66 66 66 66 66 66 66 67 67 67 68 67 67 67
72 72 72 72 72 72 72 73 73 73 73 72 72 72 71 71 70 70 71 73 74 74 74 73 72 71 71 71 70 70 69 69 69 69 69 69 69 69 69 69 69 69 68 67 66 66 66 66 65 65 64 64 64 64 63 63 63 63 63 63 63 63 63 63 63 63 63 62 62 62 62 63 63 63 63 63 63 63 63 64 64 64 64 64 64
70 70 70 70 70 70 71 71 71 71 71 70 70 70 70 70 69 68 68 68 68 69 69 70 70 69 68 68 67 67 66 66 65 65 66 66 66 65 65 66 66 67 67 66 66 65 64 63 63 62 62 61 61 61 61 61 60 60 60 60 60 60 60 60 60 60 60 60 59 59 59 60 60 60 60 60 60 60 60 60 60 61 61 61 60
68 68 68 69 69 69 69 69 69 69 69 69 69 69 68 68 67 66 66 65 65 65 65 66 66 67 66 65 65 65 64 63 63 62 62 63 63 62 62 62 62 63 63 63 63 63 62 61 60 60 59 59 59 59 59 59 58 58 57 58 58 58 57 58 57 57 57 57 56 56 56 57 57 57 57 57 57 57 57 57 57 57 58 57 57
67 67 67 68 68 67 67 67 67 67 67 67 67 66 66 66 65 65 64 64 63 63 63 63 63 63 63 63 63 63 63 62 62 61 61 61 61 61 60 60 59 59 59 60 60 60 60 59 58 57 57 56 56 56 57 56 56 55 55 55 55 55 55 55 55 55 54 54 54 53 53 53 54 54 54 54 54 54 54 54 54 54 54 54 54
66 66 66 66 66 66 66 66 66 65 65 65 65 64 64 64 63 63 63 62 62 61 61 61 60 60 60 61 61 60 60 61 61 61 61 60 60 61 60 60 59 58 58 58 58 58 58 57 56 55 54 53 53 53 53 54 54 53 53 52 52 53 53 52 52 52 52 51 51 50 50 50 51 51 51 51 51 51 51 51 51 51 51 51 51
65 65 65 65 65 65 65 65 64 64 63 63 62 62 62 62 62 62 61 61 60 60 59 59 59 58 58 58 58 58 58 58 59 59 59 59 59 59 59 58 58 57 57 56 56 56 56 55 55 54 52 51 50 50 50 50 51 51 51 50 50 50 50 50 50 50 49 49 48 47 47 46 47 48 49 49 48 49 49 49 48 48 48 48 48
64 64 64 64 63 63 63 63 62 62 62 61 61 60 60 60 60 60 60 59 59 59 58 58 57 57 57 56 56 56 56 56 56 56 56 56 56 56 55 55 55 54 54 54 53 53 52 52 52 51 50 49 48 47 47 47 48 48 48 48 48 48 48 48 48 47 46 46 45 45 44 44 44 45 45 46 45 45 46 46 46 45 45 45 45
63 63 63 63 62 62 61 61 60 60 59 59 59 59 58 58 58 58 58 58 58 58 57 57 56 56 56 55 55 55 55 55 55 55 54 54 54 53 52 52 51 51 51 51 50 50 49 49 49 49 48 47 46 45 44 44 45 46 46 46 46 45 45 45 45 44 44 43 43 42 41 41 41 42 42 43 43 42 43 43 43 42 42 41 41
62 62 62 62 61 61 60 59 59 58 57 57 57 57 56 56 56 56 56 56 56 56 56 55 55 55 55 55 55 55 54 54 54 54 53 53 52 51 51 50 50 49 49 49 48 47 46 46 45 45 45 44 44 43 43 43 43 43 44 44 44 43 43 42 42 42 42 41 41 40 40 39 39 39 40 40 40 40 40 40 40 39 38 38 37
61 61 61 60 60 59 58 58 57 57 56 55 55 55 54 54 54 54 54 54 54 54 54 54 54 54 54 54 54 54 54 53 53 52 52 52 51 50 49 48 48 48 48 47 47 46 45 44 43 42 42 41 41 41 41 41 41 41 41 42 42 41 40 39 39 39 40 39 39 38 38 37 37 37 37 37 37 37 37 37 37 36 36 35 34
60 60 59 59 58 57 57 56 56 55 55 54 54 53 53 53 53 53 53 53 52 52 52 52 52 52 52 52 53 53 53 52 51 51 51 50 50 49 48 47 46 46 46 46 46 45 44 43 42 41 40 40 39 38 38 38 39 39 40 40 40 39 38 37 37 37 37 37 37 37 36 35 35 35 35 35 35 35 34 34 34 33 33 32 31
59 58 57 57 56 56 55 55 54 53 53 52 52 52 51 51 51 51 51 51 51 51 51 51 51 51 51 51 51 51 51 50 50 49 49 48 48 48 47 46 45 44 44 44 44 43 43 42 41 40 40 39 38 37 37 36 37 37 38 38 38 37 36 35 34 34 34 35 35 34 34 33 33 33 33 33 33 32 32 31 31 30 30 29 29
57 56 56 55 55 54 54 53 53 52 51 51 50 50 50 50 50 49 49 49 49 49 50 50 50 50 50 49 49 49 49 49 48 47 47 46 46 46 46 45 45 43 42 42 41 41 41 40 40 39 39 38 37 37 36 36 35 35 35 36 35 35 34 33 33 32 32 33 33 32 32 31 31 30 30 30 30 30 29 29 28 28 28 27 27
55 55 54 54 53 53 53 52 52 51 51 50 49 49 48 48 48 48 48 48 48 48 48 48 48 48 48 48 48 48 47 47 46 46 45 44 44 44 43 43 43 43 42 41 40 39 38 38 38 38 37 37 36 36 36 35 34 34 33 33 33 32 32 31 31 31 31 31 31 30 30 29 29 28 28 28 27 27 26 26 26 25 25 25 25
54 53 53 52 52 52 51 51 51 50 49 49 49 48 47 47 47 47 47 47 46 46 47 47 47 47 47 47 46 46 46 46 45 44 43 42 42 42 42 41 41 41 41 40 39 37 36 36 36 36 36 35 35 35 35 34 34 32 31 31 30 30 30 29 29 29 29 29 29 29 29 28 27 26 26 25 25 24 24 24 23 23 23 23 23
52 52 52 51 51 51 50 50 49 49 48 48 47 47 47 46 46 46 46 46 46 45 45 45 45 45 45 45 45 45 45 44 44 43 42 41 41 41 41 40 40 40 39 38 37 35 34 34 34 34 34 34 33 33 33 33 32 31 30 29 29 28 28 27 27 27 27 27 27 27 27 26 25 24 23 23 22 22 22 22 22 21 21 21 21
51 51 51 50 50 49 49 49 48 47 47 47 47 47 47 46 45 45 44 44 44 44 44 44 44 44 44 44 44 44 43 43 42 41 40 39 39 39 39 39 39 38 38 37 35 34 33 32 32 32 32 32 31 31 30 30 29 29 28 28 27 27 27 26 25 25 25 25 25 25 24 23 22 21 21 21 20 20 20 20 20 20 19 19 19
50 50 50 49 49 48 48 47 47 46 46 46 46 46 46 46 45 44 44 43 43 43 43 43 43 42 42 42 42 42 42 41 41 40 39 37 37 37 38 38 38 37 36 35 34 32 32 31 31 31 30 30 29 29 28 27 27 26 26 25 25 26 25 25 24 24 23 23 23 23 22 21 20 19 18 18 19 19 19 19 18 18 17 17 17
Wind_Direction
267 268 268 269 269 269 270 270 270 271 271 271 271 271 271 271 271 271 271 271 271 271 271 271 271 271 271 271 271 271 271 271 271 271 271 271 270 270 270 270 270 270 270 270 270 270 270 270 270 270 270 270 270 270 270 270 271 271 271 271 271 270 270 270 270 269 268 268 268 268 268 268 268 268 269 269 269 269 269 269 270 270 270 270 270
267 267 267 268 268 268 269 269 270 270 270 270 271 271 271 271 272 272 272 272 272 272 272 272 272 272 272 272 272 272 272 272 272 272 271 271 271 271 271 271 271 271 271 271 271 271 271 271 271 271 271 271 271 271 271 271 271 271 271 271 271 271 271 271 271 270 270 270 269 269 268 268 268 268 268 268 269 269 269 269 269 269 270 270 270
266 266 267 267 267 268 268 268 269 269 269 270 270 270 271 271 271 272 272 272 273 273 273 273 273 273 274 274 274 273 273 273 273 273 273 273 273 272 272 272 272 272 272 272 272 272 272 272 272 272 272 272 273 272 272 272 272 272 272 272 272 272 272 272 271 271 271 271 271 271 270 269 269 268 268 268 268 268 269 269 269 269 269 269 270
266 267 267 267 268 268 268 269 269 269 269 270 270 271 271 271 272 272 272 273 273 273 273 274 274 274 274 274 274 274 274 274 274 274 274 274 274 273 273 273 273 273 273 273 273 273 273 273 273 273 273 273 273 273 273 273 272 272 272 272 272 272 272 272 272 272 271 271 271 271 271 270 270 270 269 269 268 268 268 268 268 269 269 269 269
267 267 268 268 268 269 269 269 270 270 270 271 271 271 272 272 272 272 273 273 273 273 273 273 273 273 273 274 274 274 274 274 274 274 274 274 274 274 274 274 274 274 274 274 274 274 274 274 274 274 273 273 273 273 273 273 273 273 273 273 273 273 272 272 272 272 272 271 271 271 271 271 271 270 270 270 269 269 268 268 268 268 268 268 268
268 268 268 269 269 269 270 270 270 271 271 271 272 272 272 272 273 273 273 273 273 273 273 274 274 274 274 274 274 274 274 274 274 274 274 274 274 274 274 274 274 274 274 274 274 274 274 274 274 274 273 273 273 273 273 273 273 273 273 273 273 273 272 272 272 272 272 272 271 271 271 271 271 271 271 271 270 270 269 269 268 268 268 268 268
268 268 269 269 270 270 270 271 271 271 272 272 272 273 273 273 273 274 274 274 274 274 274 275 275 275 275 275 275 275 275 275 275 275 275 275 275 275 275 275 275 275 275 275 274 274 274 274 274 273 273 273 273 273 273 273 273 273 273 273 272 272 272 272 272 272 272 272 272 272 272 271 271 271 271 271 271 271 270 270 270 269 269 269 268
268 268 269 269 269 270 270 271 271 271 272 272 272 272 273 273 273 273 274 274 274 274 274 274 274 275 275 275 275 275 275 275 275 275 275 275 275 275 275 275 275 275 275 275 275 274 274 274 274 274 273 273 273 273 273 273 273 273 273 273 273 272 272 272 272 272 272 272 272 272 272 272 272 272 272 272 272 272 271 271 270 270 269 269 269
268 269 269 269 269 270 270 270 271 271 271 272 272 272 273 273 273 273 273 274 274 274 274 274 274 274 274 274 274 274 274 274 275 275 275 275 275 275 275 275 275 275 275 275 275 274 274 274 274 274 274 274 274 274 274 274 274 274 273 273 273 273 273 273 273 272 272 272 272 272 272 272 272 272 272 272 272 272 271 271 271 270 270 269 269
270 270 270 270 271 271 271 271 272 272 272 272 273 273 273 273 274 274 274 274 274 274 274 274 274 274 274 275 275 275 275 275 275 275 275 275 275 275 275 276 276 275 275 275 275 275 275 275 275 274 274 274 274 274 274 274 274 273 273 273 273 273 273 273 273 273 273 273 272 272 272 272 272 272 271 271 271 271 271 271 271 271 270 270 270
272 272 272 273 273 273 273 273 274 274 274 274 274 274 274 274 274 274 274 274 274 274 274 274 275 275 275 275 275 275 275 275 275 275 275 275 275 275 276 276 275 275 275 275 275 275 275 275 275 274 274 274 274 273 273 273 272 272 272 272 272 272 272 272 272 272 272 272 272 272 272 271 271 271 270 270 270 270 270 271 271 271 270 270 270
274 274 275 275 275 275 275 275 275 275 275 275 275 275 275 275 275 275 275 275 275 275 275 275 275 275 275 276 276 276 276 276 276 276 276 276 276 276 276 275 275 275 275 274 274 274 274 274 274 275 275 275 274 274 274 273 272 272 272 272 272 272 272 272 272 272 272 272 272 272 272 271 271 270 270 270 270 270 270 270 270 270 269 269 269
275 275 275 275 276 276 276 276 276 276 276 276 276 276 276 276 276 276 276 276 276 276 276 276 276 276 276 276 276 276 276 276 276 276 276 276 276 276 276 276 275 275 275 275 275 275 275 275 275 275 275 275 275 275 275 274 274 274 273 273 273 273 273 273 273 273 272 272 272 272 271 271 270 270 270 270 270 270 269 269 269 269 268 268 268
276 276 276 276 276 276 277 277 277 277 277 277 277 277 277 277 277 277 277 277 277 277 277 277 277 277 277 277 277 277 277 277 277 277 277 277 277 277 277 276 276 276 275 275 275 275 275 275 275 275 275 275 275 275 275 274 274 274 275 275 275 274 274 274 274 274 273 273 272 271 271 271 270 270 270 269 269 269 269 268 268 268 268 268 267
278 278 278 278 278 278 278 278 278 278 278 278 278 278 278 278 278 278 278 278 278 278 278 278 278 278 278 278 278 278 278 278 277 277 277 277 277 277 277 277 276 276 276 276 276 275 275 275 275 275 274 274 274 274 274 274 274 274 274 275 275 274 274 274 274 274 273 272 271 271 270 270 270 270 269 269 269 269 268 268 267 267 267 267 267
278 278 279 279 279 279 279 279 279 279 279 279 279 279 279 279 279 279 279 279 279 279 279 279 279 279 279 279 279 279 278 278 278 278 278 278 278 278 278 278 277 277 277 277 276 276 276 275 275 275 274 274 274 274 274 274 274 274 274 274 274 274 274 274 273 272 272 271 271 270 270 269 269 269 268 268 268 268 268 268 267 267 267 267 267
279 279 279 280 280 280 280 280 280 280 280 280 280 280 280 280 280 280 280 280 280 280 280 280 280 280 280 280 279 279 279 279 279 279 279 279 279 279 279 279 279 279 279 278 278 278 277 277 276 276 276 276 275 275 275 275 275 275 275 275 275 275 274 274 273 273 272 272 271 271 270 269 269 268 268 268 268 268 268 268 268 267 267 267 267
280 280 280 280 280 280 280 280 280 280 280 280 280 280 280 280 280 280 280 280 280 280 280 280 280 280 280 280 280 280 281 281 281 281 281 281 281 281 280 280 280 280 280 280 280 279 279 279 278 278 278 277 277 277 277 277 277 277 277 277 276 276 275 275 275 274 274 274 273 272 271 271 270 270 269 268 268 268 268 268 268 268 268 267 267
280 280 280 281 281 281 281 281 281 281 281 281 281 281 281 281 281 281 281 281 281 281 281 281 281 281 282 282 282 282 282 282 282 282 282 282 282 281 281 281 281 281 281 281 281 280 280 280 279 279 279 278 278 278 278 278 278 278 277 276 276 275 275 275 275 275 274 274 274 273 273 272 271 271 271 270 270 269 269 268 268 268 268 268 267
281 281 281 281 281 281 281 282 282 282 282 282 282 282 282 282 282 282 282 282 282 282 282 282 282 282 282 282 282 282 282 282 282 282 282 282 282 282 281 281 281 281 281 281 281 281 280 280 280 280 279 279 278 278 278 278 277 277 276 275 275 275 275 274 274 274 274 274 274 274 274 273 273 272 271 271 270 270 269 269 269 268 268 268 268
282 282 282 282 282 282 282 282 282 282 282 282 282 282 282 282 282 282 282 282 282 282 282 282 282 282 282 282 282 282 282 282 282 282 282 282 282 282 282 281 281 281 281 281 281 281 281 281 281 280 280 279 279 279 278 278 278 277 276 276 276 275 274 274 274 274 273 273 273 273 273 273 273 272 272 271 270 270 269 269 269 269 268 268 268
283 283 283 283 283 283 283 283 283 283 282 282 282 282 282 282 282 282 282 282 282 282 282 282 282 282 282 282 282 282 282 282 282 282 282 282 282 282 282 282 282 282 282 282 282 282 282 282 281 281 281 281 280 280 280 279 278 278 277 277 276 275 275 275 274 274 274 273 273 273 273 273 273 272 272 271 271 270 269 269 268 268 268 268 268
283 283 283 283 283 283 283 283 283 283 283 283 282 283 282 282 282 282 282 283 283 283 283 283 282 282 282 282 282 282 282 282 282 283 283 283 283 283 283 283 283 283 283 283 283 283 283 283 282 282 282 282 282 281 281 280 280 279 278 278 277 276 276 275 275 275 274 274 273 273 273 273 273 272 272 272 271 271 270 269 269 268 268 268 268
283 283 283 284 284 284 284 284 284 284 284 284 284 283 283 283 283 283 283 283 283 283 283 283 283 283 283 283 283 283 283 284 284 284 284 284 284 284 284 284 284 283 283 283 284 284 284 283 283 283 283 283 282 282 282 281 281 280 279 278 278 277 276 276 275 275 275 274 274 274 273 273 273 273 273 272 272 271 271 270 270 269 268 268 268
285 285 285 285 285 285 285 285 285 285 285 285 284 284 284 284 284 284 284 284 284 284 284 285 285 285 285 285 285 285 285 285 285 285 285 285 285 285 285 285 284 284 284 284 284 283 283 283 283 283 283 283 282 282 281 281 281 280 280 279 278 277 277 276 276 275 275 275 274 274 274 274 274 273 273 272 272 271 271 271 270 270 269 268 267
286 286 286 285 285 285 285 285 285 285 285 285 285 285 285 285 285 285 285 285 286 286 286 286 286 286 286 286 286 286 286 286 286 286 285 285 285 285 285 285 284 284 284 284 284 284 284 283 284 283 283 283 282 282 282 281 281 280 280 280 279 278 278 277 276 276 275 275 275 274 274 274 274 273 273 273 272 272 271 271 270 269 269 268 268
286 286 286 286 286 286 286 285 286 286 286 286 286 286 286 286 286 286 287 287 287 287 288 288 288 288 287 287 287 287 287 287 286 286 286 286 285 285 285 285 285 284 284 284 284 284 284 284 284 284 284 284 284 283 283 282 282 281 281 280 280 279 279 278 277 276 276 275 275 275 274 274 274 273 273 273 272 272 272 271 271 270 269 269 268
287 287 286 286 286 286 286 286 286 286 286 286 287 287 287 287 287 288 288 289 289 288 288 288 288 288 288 288 287 287 287 287 287 286 286 286 286 286 285 285 285 285 285 284 284 284 284 284 284 284 284 284 284 283 283 283 282 281 281 280 280 280 279 279 278 277 276 276 275 275 274 274 274 274 273 273 273 273 272 272 271 270 270 269 268
288 288 287 287 287 287 287 287 287 287 287 287 287 288 288 288 288 289 289 289 289 289 289 289 288 288 288 288 288 287 287 287 287 287 287 287 287 287 286 286 286 286 285 285 285 284 284 284 284 284 283 283 283 283 283 283 282 282 281 281 280 280 279 279 278 278 277 276 275 275 274 274 274 274 273 273 273 272 272 271 271 270 270 269 269
289 289 289 289 288 288 288 288 288 287 287 288 288 289 290 290 290 290 290 289 289 289 289 289 289 289 289 289 289 289 289 289 288 288 288 288 288 288 287 287 287 287 287 287 286 286 286 286 285 285 285 284 284 284 284 283 283 282 282 282 281 280 280 279 279 278 278 277 276 276 275 274 274 274 273 273 273 272 272 271 271 271 270 270 269
290 290 290 290 290 290 289 289 289 289 289 289 289 290 290 291 291 291 290 290 290 290 290 290 290 290 290 290 290 290 291 291 291 291 290 290 290 290 289 289 289 289 289 289 289 288 288 288 287 287 287 287 286 285 285 284 284 284 283 283 282 281 281 280 280 280 279 278 278 277 276 275 275 274 274 273 273 273 272 272 271 271 271 271 270
292 292 292 291 291 291 291 291 291 291 291 291 291 290 290 291 291 291 291 291 291 291 291 291 291 291 291 291 291 291 291 292 292 292 292 292 292 292 292 291 290 290 290 290 290 290 290 290 290 289 289 289 288 288 287 286 285 285 284 284 283 283 282 281 281 281 280 279 279 278 277 277 276 275 275 274 274 273 272 272 272 271 271 271 270
293 293 293 293 293 292 292 292 292 292 292 292 292 291 291 291 291 292 292 293 293 293 292 292 292 292 292 292 292 292 292 293 293 293 293 293 294 294 294 293 293 292 292 292 292 292 292 292 292 291 291 290 289 289 288 288 287 286 286 285 284 284 283 283 282 281 281 280 280 279 278 277 277 276 276 275 274 274 273 272 272 272 271 271 270
294 294 294 293 293 293 293 293 293 293 293 293 293 293 293 292 292 292 292 292 293 294 294 294 294 293 294 294 294 294 294 294 295 295 295 295 295 295 295 295 295 295 295 294 293 293 293 293 292 292 292 291 291 290 289 289 288 288 287 286 286 285 284 284 283 282 282 281 280 280 279 278 277 277 276 276 275 274 274 273 272 272 271 271 270
295 295 294 294 294 294 295 295 295 295 295 294 294 294 294 293 293 292 292 292 293 293 294 295 295 295 295 295 295 295 295 295 295 295 295 295 295 295 296 296 296 296 296 296 296 295 295 295 294 294 293 293 292 291 291 290 289 288 288 287 286 286 285 284 284 283 282 282 281 280 279 279 278 278 277 276 275 275 274 273 273 272 271 271 270
296 296 296 296 296 296 296 296 296 296 296 295 295 295 295 295 295 294 294 294 294 294 294 295 295 295 296 296 296 296 296 296 295 295 295 296 296 296 296 296 296 296 296 296 296 296 296 295 295 294 294 293 293 292 292 291 290 289 289 288 287 286 286 285 284 284 283 282 281 281 280 279 278 278 277 277 276 275 274 273 273 272 271 271 270
297 297 297 297 297 297 297 297 297 296 296 296 296 296 296 297 297 297 296 296 296 296 296 296 296 297 297 298 298 298 298 299 299 299 299 298 298 298 298 297 297 297 297 297 297 297 296 296 296 295 295 294 294 293 292 292 291 290 289 289 288 287 286 285 285 284 283 283 282 281 280 279 279 278 277 277 276 275 274 273 273 272 271 271 270
299 299 299 299 299 298 298 298 298 298 298 298 298 298 298 298 298 298 298 298 297 297 298 298 298 298 299 299 300 300 301 301 302 302 302 302 302 301 301 301 300 300 299 299 298 298 298 297 297 296 296 295 294 294 293 292 292 291 290 289 288 288 287 286 285 285 284 284 283 282 281 280 279 278 278 277 276 275 274 273 273 272 271 271 270
300 300 300 300 300 299 299 299 299 299 300 300 300 300 300 299 299 299 299 299 299 299 300 300 300 300 300 301 301 302 302 302 303 303 303 303 303 302 302 302 302 301 300 300 299 298 298 298 297 297 297 296 295 294 293 293 292 291 290 290 289 288 288 287 287 286 285 285 284 283 282 281 280 279 279 278 277 276 275 274 274 273 272 272 271
302 301 301 301 300 300 300 300 301 301 301 301 301 301 300 300 300 301 301 301 301 301 301 301 301 302 302 302 302 303 303 303 303 302 302 302 302 302 301 301 301 300 300 299 299 298 298 298 298 297 297 297 296 295 294 293 292 291 291 290 290 289 289 289 288 288 287 286 285 285 283 282 281 280 279 279 278 277 277 276 275 275 274 274 273
302 302 301 301 301 301 301 301 301 301 302 302 302 301 301 301 302 302 302 302 302 302 302 303 303 303 303 303 304 304 303 303 303 303 303 303 303 302 302 301 301 301 300 300 299 299 299 298 298 298 298 298 297 297 295 294 293 292 292 291 291 291 290 290 290 290 289 288 287 286 285 283 282 281 280 280 279 279 278 277 277 276 276 275 275
303 303 302 302 302 302 302 302 302 302 302 302 302 302 302 302 303 303 303 303 303 303 303 304 304 304 304 305 305 305 305 305 305 305 305 305 305 304 304 304 303 303 302 301 301 301 300 300 299 299 299 298 298 297 296 295 294 293 293 293 293 292 292 292 291 290 290 289 288 287 286 285 283 282 282 281 281 281 280 279 279 278 278 277 276
303 303 303 303 303 303 303 303 303 303 303 303 303 303 303 304 304 304 304 304 304 304 304 305 305 305 306 306 306 306 306 306 306 307 307 307 306 306 306 306 305 305 304 304 303 303 303 302 302 301 300 299 299 298 297 296 295 295 294 294 294 294 293 293 292 291 290 290 289 288 288 287 286 284 283 283 283 282 282 281 281 281 280 279 278
304 304 304 304 304 304 304 304 304 304 304 304 305 305 305 305 305 305 305 304 304 304 305 305 305 306 306 306 306 306 307 307 307 308 308 308 307 307 307 307 307 307 306 306 305 305 305 305 304 304 302 301 300 298 298 297 296 296 296 295 295 295 294 294 293 292 291 290 290 290 289 289 288 287 286 285 284 284 284 283 283 283 282 281 279
304 304 304 304 304 304 304 304 304 305 305 305 305 306 306 306 306 305 305 305 305 305 306 306 306 306 306 306 306 307 307 307 308 308 308 308 308 308 308 308 308 308 308 307 306 306 306 306 306 305 304 303 302 301 300 299 298 297 297 296 296 296 296 295 295 293 292 292 291 291 291 290 290 289 288 287 287 287 286 286 286 285 284 282 280
305 305 305 305 305 305 305 305 305 306 306 306 306 307 307 307 306 306 306 306 307 307 307 307 307 306 306 306 306 307 307 307 308 308 308 308 308 308 308 309 309 309 309 308 307 307 307 307 306 306 305 305 304 304 303 302 300 299 298 297 297 297 297 297 297 296 294 294 293 293 292 292 291 290 290 289 289 289 289 289 288 287 285 283 281
305 305 305 305 306 306 306 306 307 307 307 307 307 308 307 307 307 307 307 307 308 307 307 307 307 307 307 306 307 307 307 308 308 308 308 308 308 308 309 309 310 310 310 309 308 307 307 307 307 306 306 306 305 305 305 304 302 301 299 298 298 298 298 298 298 297 296 296 295 295 294 294 293 292 292 292 292 292 291 290 289 287 286 284 282
306 306 306 306 306 307 307 307 308 308 308 308 308 308 308 308 308 308 308 308 308 308 308 307 307 307 307 307 307 307 308 308 309 309 309 309 309 309 309 310 310 310 310 310 309 308 308 308 307 307 306 306 306 306 305 305 304 303 301 301 300 300 300 300 300 299 298 297 296 296 296 296 296 296 295 295 294 293 292 290 289 287 285 284 282
307 307 307 307 308 308 308 308 308 308 308 309 309 309 309 309 309 309 309 309 309 309 308 308 308 307 308 308 308 308 309 309 310 310 310 310 310 310 310 311 311 311 310 309 309 309 309 309 308 308 307 307 306 306 305 304 304 304 304 303 303 303 302 303 303 302 300 299 297 297 297 298 299 299 299 298 296 294 292 290 288 286 285 284 283
308 308 308 308 308 309 309 309 309 309 310 310 310 310 310 310 310 310 310 310 310 309 308 308 308 308 308 308 308 309 309 310 310 311 311 311 311 311 311 311 311 311 311 310 310 310 311 311 310 309 308 307 307 306 305 304 304 305 306 306 306 306 306 306 306 304 303 301 299 299 300 301 302 301 300 298 296 293 291 290 288 287 286 285 284
308 308 308 309 309 309 310 310 310 311 311 311 311 310 311 311 311 311 311 311 310 310 309 309 309 309 309 309 309 309 310 310 311 311 311 311 311 311 311 311 312 312 312 311 312 312 313 313 312 311 310 309 309 308 308 307 307 307 307 308 309 309 309 308 308 306 304 303 302 302 302 303 303 302 300 296 294 292 291 290 289 289 288 287 285